This demonstration page uses our WeatherBlox Daily Observations layout. Learn more.

Hourly Observations for January 20, 2020

Temp ( °F °C ) Dew Point ( °F °C ) Humidity (%) Winds ( mph kmh ) Pressure ( in mb ) Visibility ( mi km ) Precip ( " mm )
12:53 am 00:53 Cloudy 17 -8.3 9 -12.8 70 70 NW 8 13 30.5 1033 9 14.48406 0 0
1:18 am 01:18 Cloudy 17 -8.3 9 -12.8 70 70 WNW 3 6 30.53 1034 9 14.48406 0 0
1:53 am 01:53 Cloudy 17 -8.3 9 -12.8 70 70 WNW 6 9 30.5 1033 9 14.48406 0 0
2:31 am 02:31 Cloudy 17 -8.3 10 -12.2 74 74 NNW 6 9 30.54 1034 10 16.0934 0 0
2:41 am 02:41 Cloudy 17 -8.3 10 -12.2 74 74 Calm 30.54 1034 10 16.0934 0 0
2:53 am 02:53 Cloudy 17 -8.3 10 -12.2 74 74 NW 6 9 30.52 1033 10 16.0934 0 0
3:53 am 03:53 Cloudy 18 -7.8 10 -12.2 71 71 N 7 11 30.52 1034 9 14.48406 0 0
4:53 am 04:53 Cloudy 18 -7.8 11 -11.7 74 74 NNW 6 9 30.53 1034 10 16.0934 0 0
5:53 am 05:53 Cloudy 18 -7.8 11 -11.7 74 74 NNW 8 13 30.55 1035 10 16.0934 0 0
6:53 am 06:53 Cloudy 18 -7.8 11 -11.7 74 74 N 6 9 30.57 1035 10 16.0934 0 0
7:53 am 07:53 Cloudy 18 -7.8 11 -11.7 74 74 N 7 11 30.59 1036 10 16.0934 0 0
8:53 am 08:53 Cloudy 19 -7.2 11 -11.7 71 71 NNE 7 11 30.61 1037 8 12.87472 0 0
9:53 am 09:53 Mostly Cloudy 20 -6.7 12 -11.1 71 71 Calm 30.63 1037 10 16.0934 0 0
10:53 am 10:53 Mostly Cloudy 22 -5.6 13 -10.6 68 68 Calm 30.63 1037 10 16.0934 0 0
11:53 am 11:53 Mostly Cloudy 25 -3.9 14 -10 63 63 NNW 6 9 30.63 1037 10 16.0934 0 0
12:53 pm 12:53 Mostly Cloudy 25 -3.9 13 -10.6 60 60 NNE 5 7 30.61 1037 10 16.0934 0 0
1:53 pm 13:53 Mostly Cloudy 28 -2.2 14 -10 56 56 WNW 3 6 30.59 1036 10 16.0934 0 0
2:53 pm 14:53 Mostly Cloudy 29 -1.7 14 -10 54 54 N 7 11 30.58 1035 10 16.0934 0 0
3:53 pm 15:53 Partly Cloudy 29 -1.7 13 -10.6 51 51 NNE 5 7 30.57 1035 10 16.0934 0 0
4:53 pm 16:53 Mostly Cloudy 27 -2.8 12 -11.1 53 53 NW 6 9 30.58 1036 10 16.0934 0 0
5:53 pm 17:53 Cloudy 26 -3.3 13 -10.6 57 57 N 6 9 30.59 1036 10 16.0934 0 0
6:53 pm 18:53 Mostly Cloudy 26 -3.3 13 -10.6 57 57 NW 5 7 30.6 1036 10 16.0934 0 0
7:53 pm 19:53 Cloudy 26 -3.3 14 -10 60 60 Calm 30.6 1036 10 16.0934 0 0
8:53 pm 20:53 Cloudy 26 -3.3 15 -9.4 63 63 NW 7 11 30.6 1036 10 16.0934 0 0
9:53 pm 21:53 Cloudy 26 -3.3 15 -9.4 63 63 N 8 13 30.61 1037 10 16.0934 0 0
10:53 pm 22:53 Cloudy 25 -3.9 15 -9.4 66 66 NNE 7 11 30.62 1037 10 16.0934 0 0
11:53 pm 23:53 Cloudy 25 -3.9 14 -10 63 63 NE 7 11 30.62 1037 10 16.0934 0 0

Powered by AerisWeather